Location: Newark
(41.9000°N, 12.4833°E)
Time: 13:41:46
(UTC+00:00)

EO-79 - Pass Details

Date: 22 May 2019
Orbit: 592 x 611 km, 97.9° (Epoch: 23 June)

Event Time Altitude Azimuth Distance (km) Brightness Sun altitude
Rises 00:48:16 0° 356° (N) 2,843 ? -23.5°
Reaches altitude 10° 00:51:00 10° 337° (NNW) 1,934 ? -23.3°
Maximum altitude 00:53:48 18° 295° (WNW) 1,491 ? -23.1°
Enters shadow 00:53:56 18° 292° (WNW) 1,492 ? -23.0°
